Regional Weather Roundup
Issued by NWS

Home | Current Version | Previous Version | Graphics & Text | Print | Product List | Glossary On
Versions: 1 2 3 4 5 6 7 8 9 10 11 12 13 14 15 16 17 18 19 20 21 22 23 24 25 26 27 28 29 30 31 32 33 34 35 36 37 38 39 40 41 42 43 44 45 46 47 48 49 50
000
ASUS44 KMEG 272200
RWRTN
TENNESSEE HOURLY STATE WEATHER ROUNDUP
NATIONAL WEATHER SERVICE MEMPHIS TN
500 PM CDT WED APR 27 2016

TNZ002-004-019-021-049-052-054-088>092-272300-
WEST TENNESSEE

CITY           SKY/WX    TMP DP  RH WIND       PRES   REMARKS
MEMPHIS INTL   CLOUDY    76  63  64 S12       29.68F
NWS MEMPHIS      N/A     78 N/A N/A MISG        N/A
JACKSON        CLOUDY    69  64  84 S5        29.71S
DYERSBURG      CLOUDY    73  66  78 S3        29.69S
UNION CITY     MOSUNNY   75  64  69 S13       29.67S
LEXINGTON      CLOUDY    64  63  94 SE5       29.73F
$$

TNZ008-025-027-028-033-062-065-066-272300-
NORTH MIDDLE TENNESSEE

CITY           SKY/WX    TMP DP  RH WIND       PRES   REMARKS
NASHVILLE      CLOUDY    79  60  52 S14G20    29.74S
COOKEVILLE     SUNNY     82  59  44 W9        29.77S
CROSSVILLE     CLOUDY    76  57  51 SW3       29.82S
$$

TNZ061-075-076-078-094-096-097-272300-
SOUTH MIDDLE TENNESSEE

CITY           SKY/WX    TMP DP  RH WIND       PRES   REMARKS
TULLAHOMA      PTSUNNY   77  55  47 S9        29.81S
WINCHESTER     MOSUNNY   79  59  50 SW7       29.80S
MCMINNVILLE    MOSUNNY   81  59  47 SW7       29.79R
COLUMBIA       MOSUNNY   77  66  69 S9        29.74F
SHELBYVILLE    MOSUNNY   81  63  54 S12       29.78F
$$

TNZ017-018-042-046-047-272300-
NORTHEAST TENNESSEE

CITY           SKY/WX    TMP DP  RH WIND       PRES   REMARKS
TRI CITIES     PTSUNNY   81  60  48 N8        29.81F
$$

TNZ012-013-036-069-073-074-272300-
CENTRAL EAST TENNESSEE

CITY           SKY/WX    TMP DP  RH WIND       PRES   REMARKS
KNOXVILLE      CLOUDY    82  57  42 W12       29.77F
OAK RIDGE      CLOUDY    83  56  39 SW8       29.79F
GATLINBURG     CLEAR     82  57  42 SW9       29.77F
$$

TNZ083-085-099-272300-
SOUTHEAST TENNESSEE

CITY           SKY/WX    TMP DP  RH WIND       PRES   REMARKS
CHATTANOOGA    CLOUDY    82  57  42 S12G20    29.79S
$$

SKY/WX REPORTED AS FAIR MEANS FEW OR NO CLOUDS BELOW
12 THOUSAND FEET.





USA.gov is the U.S. government's official web portal to all federal, state and local government web resources and services.